Wind_Speed
23 23 23 23 24 24 24 24 24 24 26 27 25 24 25 25 25 25 24 24 23 22 22 21 21 21 21 21 21 21 22 21 20 11 10 23 32 27 21 18 10 13 18 16 23 23 15 12 14 16 13 8 3 3 6 4 3 2 1 1 3 3 3 4 4 3 3 2 6 10 11 10 8 6 4 6 6 7 7 2 4 4 5 9 17 26 29 26
23 23 24 24 25 25 24 25 26 27 28 27 26 26 26 27 26 26 26 25 23 23 22 21 21 20 20 20 19 19 20 19 16 13 22 29 28 28 28 26 18 15 20 23 29 25 15 9 12 13 7 5 2 4 7 4 4 3 2 2 4 4 4 4 4 3 1 1 6 9 10 10 10 8 6 5 6 8 7 3 5 6 8 12 19 28 28 26
24 24 24 25 26 26 26 26 27 28 28 28 27 27 28 28 28 28 27 25 24 24 23 22 20 19 19 18 17 17 16 13 10 12 20 16 11 16 21 25 23 21 21 24 30 28 22 16 16 13 5 4 3 5 7 5 4 4 2 3 6 6 6 4 3 6 5 3 8 8 8 8 8 8 5 6 9 9 8 7 8 7 10 13 17 23 26 26
24 25 25 25 27 28 28 28 27 28 28 28 29 30 30 30 30 29 28 26 25 25 23 22 20 18 18 16 15 13 10 7 5 7 7 3 3 8 8 21 25 24 22 25 28 27 27 22 16 11 6 4 3 4 7 5 4 3 5 5 4 4 5 6 5 7 8 5 9 7 7 6 6 6 5 9 10 7 9 11 14 15 16 16 17 20 24 24
25 26 26 26 28 28 28 30 30 31 30 30 31 32 32 32 32 30 28 27 26 25 23 22 19 17 16 13 12 9 5 3 5 4 3 3 8 15 9 17 27 27 25 26 24 22 25 19 12 8 5 4 4 4 6 9 5 2 8 8 6 4 6 7 4 6 6 3 7 7 8 7 6 6 7 13 11 7 11 14 14 18 20 20 20 20 21 21
26 26 26 26 27 27 29 30 30 30 31 32 33 34 35 34 33 31 29 28 26 25 23 22 18 15 14 10 6 3 0 2 8 5 5 10 18 21 12 16 29 28 28 27 23 20 17 14 10 8 5 4 7 7 5 9 9 5 6 6 7 6 8 11 4 4 3 3 7 8 7 8 8 7 9 14 11 3 6 11 11 15 21 23 22 20 20 19
26 26 26 26 27 27 29 29 29 31 33 34 36 37 36 35 33 32 30 29 26 24 22 20 16 13 12 6 0 0 1 7 17 15 14 19 20 18 6 22 32 30 28 24 19 15 12 13 11 8 6 4 6 8 4 5 8 8 7 4 6 8 9 12 9 4 4 5 7 7 7 10 13 9 8 15 11 1 5 10 11 13 18 21 20 18 19 19
26 26 26 27 28 28 29 30 31 32 34 36 39 39 37 36 34 33 31 28 26 23 20 17 14 11 8 2 1 2 2 13 25 21 18 16 11 6 10 28 33 30 27 24 19 14 13 13 12 7 5 6 4 5 5 4 5 9 9 5 6 8 10 11 11 8 5 7 6 8 10 14 16 9 9 17 10 3 8 12 12 13 15 17 19 19 17 17
26 27 27 27 29 31 32 33 34 35 37 40 42 40 39 37 35 33 29 27 24 22 20 16 12 8 4 1 1 3 6 13 16 11 10 8 2 6 21 30 32 30 24 23 22 17 12 11 11 8 5 6 4 2 5 4 5 8 8 7 8 9 11 10 10 10 8 6 6 9 11 14 11 6 7 13 7 7 11 13 14 16 16 15 16 18 17 16
28 28 28 28 30 33 34 35 37 38 40 43 43 41 40 38 34 32 29 27 25 22 19 14 10 5 4 2 3 5 8 4 1 3 2 5 9 15 23 28 33 29 20 18 19 16 9 9 11 6 2 3 4 4 4 4 3 5 6 8 11 11 12 9 9 11 7 4 9 12 13 12 8 5 7 6 9 11 13 13 14 15 16 15 14 15 16 16
29 28 29 30 32 35 35 37 40 41 44 45 43 42 40 36 33 32 30 29 25 22 17 11 8 8 7 4 4 6 6 4 4 6 7 6 11 15 18 26 33 28 22 15 14 20 16 14 13 5 1 2 2 3 5 6 4 6 7 9 10 9 10 9 9 9 4 4 11 12 8 7 6 8 9 7 12 14 15 14 14 15 14 14 15 13 12 13
28 29 30 31 34 35 36 39 42 44 46 45 44 42 38 34 34 32 29 26 22 18 13 10 11 13 8 3 8 16 9 5 6 5 7 6 4 5 10 21 29 27 24 15 13 25 22 18 17 7 5 3 2 2 4 6 3 5 4 7 10 6 8 10 7 6 4 4 9 9 2 3 9 12 8 10 12 14 15 15 14 14 12 13 14 12 10 12
29 30 30 32 33 34 37 41 44 46 46 46 44 39 36 35 31 26 22 19 15 11 9 11 14 15 8 1 11 19 16 12 10 9 10 10 9 7 8 15 24 24 23 18 18 27 22 19 20 10 5 5 3 2 2 2 1 4 3 3 6 6 8 7 2 3 4 4 10 11 1 6 14 11 9 12 14 14 14 14 14 13 11 12 12 11 10 12
31 31 31 33 33 35 38 43 46 46 47 47 41 36 35 30 22 18 15 12 7 5 9 13 17 15 5 7 9 10 16 19 18 20 23 21 13 8 9 13 20 23 21 16 12 18 20 16 13 6 2 3 2 3 4 2 1 2 3 2 2 2 7 5 2 3 2 4 12 12 5 8 12 10 11 14 16 17 15 14 14 13 12 11 12 12 11 12
33 32 33 34 35 38 42 46 47 46 48 45 37 35 30 20 14 12 9 5 1 9 13 16 16 10 1 10 12 9 12 15 20 27 27 18 10 8 11 15 18 22 21 15 5 5 15 12 4 1 2 3 2 3 4 3 2 1 1 4 2 2 6 7 1 5 5 5 11 12 5 6 7 9 12 14 16 17 16 15 15 14 14 13 11 12 11 11
34 33 35 37 39 42 45 48 47 47 48 40 35 31 19 11 10 10 10 11 10 14 14 11 10 6 1 6 5 4 6 8 14 21 22 20 17 12 13 15 13 16 16 11 5 7 12 10 2 3 3 2 3 3 1 3 4 1 2 4 3 3 4 7 4 4 5 3 7 11 5 2 3 8 12 14 16 16 14 15 16 15 14 14 12 11 11 11
34 35 37 39 43 44 47 48 47 49 45 36 34 23 8 6 8 11 15 16 14 14 9 6 9 5 4 6 3 3 5 6 9 9 10 18 23 17 13 10 6 10 8 4 6 6 7 5 2 2 2 2 4 5 3 6 6 2 1 3 4 4 4 5 5 2 1 3 6 11 9 4 2 8 14 14 16 15 14 15 16 14 13 13 12 11 11 12
33 35 36 40 44 46 49 48 47 48 39 33 30 14 5 5 6 9 12 13 10 7 5 2 7 2 5 5 3 4 3 3 5 6 6 9 17 20 15 7 6 9 6 4 4 5 3 2 2 2 3 5 4 6 7 7 5 4 3 3 4 4 4 6 5 3 2 1 5 8 10 8 3 5 12 14 16 15 14 15 14 14 14 13 12 12 12 13
33 34 35 40 44 48 49 47 49 44 33 32 24 7 6 5 1 2 4 5 4 2 0 1 6 2 4 5 4 6 6 6 7 7 6 6 12 18 12 6 8 10 6 2 2 5 4 1 3 5 5 7 7 8 8 4 6 7 6 4 4 4 6 5 5 6 3 2 5 6 10 10 4 7 10 12 14 13 12 12 11 12 12 12 11 11 12 14
34 35 38 41 44 49 48 47 48 35 27 33 21 6 6 7 3 3 5 6 5 7 7 6 8 6 9 6 2 4 8 6 5 4 5 9 14 12 5 3 6 5 5 6 4 4 6 4 6 8 6 7 8 8 7 5 4 5 4 4 5 5 7 5 3 7 3 1 6 7 10 10 5 7 10 12 12 12 12 11 12 12 12 12 13 13 14 15
38 39 42 44 47 49 47 48 41 25 25 29 17 7 4 4 3 4 8 11 10 10 13 14 13 14 15 11 3 3 5 3 4 4 4 8 15 12 4 4 6 4 5 7 5 2 5 8 10 8 7 7 8 7 7 7 6 6 5 4 5 6 8 5 3 7 3 1 6 5 6 8 6 7 8 10 13 14 15 15 15 16 15 13 14 16 16 13
42 42 45 46 48 49 48 47 30 18 27 24 12 7 4 3 5 6 6 9 11 10 14 17 15 17 19 21 18 5 2 4 8 9 7 8 9 8 5 7 8 7 6 6 5 3 5 9 9 9 8 7 7 7 8 8 7 6 5 4 5 6 5 4 3 5 3 3 7 6 6 8 6 8 9 11 14 15 15 17 18 18 17 15 15 16 15 12
43 44 45 46 49 49 48 41 21 19 31 23 7 4 4 7 11 9 4 6 12 9 12 15 14 15 16 18 18 11 7 7 7 9 10 13 6 6 8 9 11 8 7 8 8 7 6 7 8 10 9 9 7 6 8 7 5 5 5 4 6 5 2 3 4 3 3 4 5 4 4 5 2 5 9 12 13 9 8 12 12 13 15 16 17 16 14 15
43 44 45 47 48 48 46 32 15 23 34 20 3 3 7 16 17 11 2 4 8 6 10 14 11 11 12 10 12 16 11 8 7 8 12 17 6 4 8 10 11 8 8 12 12 10 7 6 7 12 10 11 8 5 7 6 4 5 6 6 8 5 3 4 3 4 3 3 2 1 3 5 2 6 8 10 11 9 8 10 10 10 13 13 13 12 13 15
44 44 45 48 47 48 43 21 12 29 33 12 4 4 19 24 20 12 2 2 6 5 6 8 5 6 9 8 12 15 6 5 10 9 10 17 11 6 5 6 7 10 12 12 10 9 9 5 6 11 9 10 10 7 7 7 5 5 7 10 10 6 3 2 1 4 4 5 3 3 1 6 3 6 9 7 10 13 11 12 15 13 12 12 11 12 13 13
44 43 45 47 47 49 34 10 15 32 23 5 6 21 28 27 23 12 1 1 5 5 2 2 2 5 8 7 8 9 4 5 11 11 9 15 16 7 4 4 3 10 12 8 5 4 6 6 7 9 9 10 10 9 8 9 5 6 6 9 9 6 4 4 1 1 1 4 5 2 3 5 5 5 9 7 10 15 13 14 16 14 12 14 13 13 13 13
43 43 46 46 47 44 20 7 24 24 8 9 24 32 30 28 23 8 1 3 4 3 3 0 1 6 6 6 10 9 4 3 3 10 12 16 16 6 6 8 4 7 7 4 3 3 6 9 8 9 9 9 9 8 8 10 7 6 4 9 7 6 6 6 5 4 4 4 5 2 4 4 5 6 8 8 9 11 13 15 15 14 15 16 15 14 14 14
42 44 45 46 46 35 13 14 23 14 8 22 32 32 30 28 17 1 1 2 4 1 3 1 1 5 2 4 10 7 3 1 3 6 10 16 14 5 7 10 9 10 9 8 8 4 8 12 13 13 9 7 7 6 9 11 8 5 6 7 6 6 6 5 6 5 2 1 6 5 5 4 6 6 4 7 10 11 15 18 16 16 17 17 16 16 16 15
43 44 44 46 43 30 17 16 15 14 23 30 30 32 30 21 7 2 2 2 4 1 2 1 1 1 3 3 8 6 4 2 2 2 7 12 10 4 5 9 9 9 9 12 10 4 6 11 15 14 9 8 7 7 11 13 10 4 5 2 0 2 2 3 5 4 1 2 9 7 6 5 6 5 2 4 8 12 14 16 15 16 16 16 16 16 16 14
44 44 45 44 38 28 22 17 15 22 32 31 30 31 22 8 1 3 2 4 2 2 1 2 2 2 3 4 4 7 5 4 3 3 6 6 4 2 2 3 6 5 5 8 10 6 2 4 9 9 8 10 8 6 9 12 9 5 4 3 3 3 3 2 1 2 1 6 10 9 8 6 6 5 5 5 7 12 13 11 13 14 15 15 15 15 16 15
44 45 45 40 32 24 16 14 21 30 31 30 29 22 9 1 2 3 5 3 2 3 4 4 3 4 3 1 3 4 5 5 2 4 6 4 4 3 2 4 3 4 3 6 8 7 4 1 4 4 7 9 7 5 7 8 8 5 5 4 2 4 3 2 2 3 4 9 7 7 8 7 8 6 5 7 9 14 14 13 15 17 18 17 16 16 17 16
44 45 43 35 27 18 10 14 27 33 30 28 21 10 2 1 1 4 5 3 3 2 3 2 3 4 4 3 4 4 4 3 2 5 6 6 7 8 7 7 6 5 6 7 4 3 5 4 3 3 5 9 8 5 5 3 6 6 4 5 4 2 2 2 2 1 6 8 4 6 7 6 9 6 6 10 11 13 14 14 17 19 20 19 18 18 17 16
44 44 40 29 19 14 14 21 28 29 28 22 11 3 4 2 4 5 5 3 1 2 3 2 5 6 4 3 3 4 3 3 4 5 5 5 7 9 6 5 8 7 4 6 4 3 3 5 4 4 3 7 11 7 5 4 5 8 6 6 6 4 3 5 4 2 5 6 4 3 5 4 7 5 9 13 13 14 15 15 17 18 19 21 20 19 17 17
43 41 35 22 13 15 22 25 26 25 23 15 5 2 2 5 4 2 3 3 1 3 4 4 7 6 3 2 3 3 1 2 1 3 6 5 5 8 5 3 7 6 4 4 5 5 6 5 7 11 5 7 12 10 8 7 5 7 6 6 5 5 5 5 4 4 5 5 3 1 4 5 5 5 10 14 14 14 14 15 16 16 17 18 16 15 15 16
41 39 33 19 11 21 28 26 27 23 14 7 3 1 5 6 2 1 2 3 2 4 7 7 5 3 3 3 3 6 2 2 6 3 4 6 5 6 6 5 7 5 5 4 3 4 9 8 6 9 7 11 13 9 8 9 5 5 5 5 6 6 5 3 4 6 3 3 3 2 3 5 5 5 6 9 11 12 13 14 15 15 16 14 11 11 13 15
40 37 30 16 12 26 30 28 29 18 5 3 1 4 4 3 1 0 2 3 2 5 9 7 2 2 4 3 3 7 4 3 7 5 1 4 4 1 3 5 6 7 6 6 4 3 5 7 2 4 5 11 13 10 9 8 5 3 4 7 6 5 7 4 4 3 1 3 4 3 3 5 4 5 6 6 8 10 12 13 14 16 17 14 10 11 13 14
37 32 22 12 16 28 31 31 28 11 2 3 2 5 3 1 1 1 3 4 3 4 5 3 2 1 2 3 3 7 7 4 6 5 2 1 2 4 5 3 2 3 3 3 4 4 4 5 3 7 8 10 9 10 10 10 9 6 6 7 3 5 4 4 2 3 3 5 5 2 4 5 3 5 5 5 7 10 11 12 14 16 15 13 11 11 13 15
30 24 12 10 21 31 33 32 20 2 4 2 4 4 2 1 3 4 4 5 4 3 1 1 2 1 2 2 2 6 7 4 5 5 2 1 2 5 5 5 6 6 7 7 3 3 3 4 5 8 13 7 5 8 6 6 7 5 5 7 5 3 4 3 3 4 4 5 4 3 5 5 6 5 3 6 10 11 11 11 12 14 14 12 12 13 14 15
21 12 4 11 26 34 35 27 8 3 3 1 4 3 2 2 5 6 7 7 4 3 1 3 2 2 2 2 2 4 5 3 4 3 2 2 0 4 8 5 7 10 11 6 1 2 2 3 6 6 8 6 5 6 6 6 7 2 3 5 4 3 4 4 4 4 4 4 4 3 5 5 6 6 6 9 12 12 12 12 12 14 15 13 13 13 13 13
12 3 3 16 30 35 32 15 2 2 2 2 2 2 4 5 6 7 8 8 4 2 2 2 2 2 2 3 3 2 2 2 4 2 1 3 2 3 9 8 7 12 13 5 1 1 1 4 5 3 1 5 4 5 9 10 8 5 4 5 4 2 2 3 2 2 4 4 4 3 5 6 5 5 9 11 12 13 13 12 12 13 14 14 14 14 13 14
6 0 5 20 31 34 26 7 3 4 1 1 4 4 6 7 6 8 8 7 4 3 3 4 4 3 2 3 3 1 1 1 2 1 1 3 4 2 7 8 7 10 10 4 3 3 1 2 4 2 1 3 4 8 13 15 12 9 7 7 7 4 4 4 4 3 3 4 4 3 6 8 5 5 8 9 10 11 12 12 11 11 13 13 13 14 14 13
3 1 10 22 30 27 15 5 3 4 1 4 7 6 8 8 6 7 6 6 5 2 3 3 4 3 2 2 1 1 2 0 2 1 1 4 5 2 6 10 9 8 5 3 2 2 1 1 3 4 3 4 6 8 11 13 14 12 9 8 8 6 5 6 7 4 3 3 2 3 5 9 5 7 8 9 9 10 10 11 10 11 12 11 12 13 13 12
3 5 15 22 28 20 5 5 5 4 2 6 7 7 8 6 7 8 5 6 5 3 3 2 2 2 2 1 2 2 2 1 2 3 3 4 4 3 8 12 10 8 5 3 3 3 3 1 3 3 3 3 6 6 5 4 6 8 8 7 8 8 8 7 6 4 4 4 3 2 7 8 4 5 8 7 7 6 7 9 10 10 9 9 11 13 12 12
3 4 9 17 25 16 4 5 6 4 5 8 8 8 7 5 8 9 7 6 5 4 3 3 3 3 3 3 3 3 3 2 3 4 4 2 2 3 9 12 10 7 5 5 5 4 3 1 1 1 2 4 4 5 5 4 2 4 5 7 10 12 11 7 3 4 3 7 8 6 8 7 4 3 4 6 5 6 8 7 8 9 7 7 9 9 9 10
4 2 4 10 16 10 5 5 5 4 6 9 9 8 7 6 6 9 9 7 6 6 4 3 5 4 4 5 3 4 5 3 2 3 3 3 1 4 8 11 7 5 5 9 10 3 2 1 1 1 5 7 5 5 4 2 3 4 4 8 12 13 15 10 4 4 6 7 9 8 8 6 6 4 4 7 6 7 9 7 5 7 8 7 7 7 7 8
3 2 2 5 6 4 3 3 5 4 6 8 7 5 6 7 6 7 9 7 9 11 6 3 5 6 6 7 4 3 5 4 3 3 2 4 2 3 7 9 5 5 7 12 13 4 0 1 0 2 3 3 2 5 4 3 4 5 3 7 11 12 15 12 8 8 7 5 7 10 7 4 6 5 5 7 6 8 9 7 6 8 8 7 7 7 6 7
1 2 3 4 3 3 3 3 5 5 6 6 4 3 6 8 6 6 5 4 8 11 7 2 7 7 6 7 5 2 3 3 2 1 3 3 3 4 7 6 3 8 10 10 9 4 2 2 2 1 2 3 5 10 11 7 5 7 8 8 11 12 14 15 14 9 8 6 11 11 7 7 8 7 7 8 7 7 8 8 8 8 7 7 7 8 7 7
1 1 2 2 2 3 3 5 6 7 8 7 3 3 6 8 7 7 5 4 7 8 4 2 7 9 7 6 4 2 2 3 1 2 3 3 4 6 7 4 2 8 10 7 5 2 3 2 3 4 6 7 6 11 13 8 6 8 10 12 12 13 17 19 17 11 10 11 15 10 9 9 8 7 9 9 9 9 9 9 7 6 6 7 6 7 8 8
1 2 2 1 1 2 4 7 8 8 8 7 3 2 5 8 9 8 5 5 7 5 4 4 7 10 9 6 4 2 1 2 2 2 2 3 4 4 3 3 2 6 8 6 4 2 2 2 3 4 7 9 8 10 9 7 6 8 11 13 14 16 18 20 17 14 13 14 13 7 10 11 9 8 10 10 9 7 5 4 3 5 8 8 6 7 8 9
1 1 2 2 2 3 4 5 5 5 6 6 4 1 3 6 9 9 7 6 6 5 5 6 9 10 9 7 5 4 3 2 2 3 3 4 4 2 1 2 2 5 7 4 3 3 0 2 3 3 5 7 8 8 8 9 9 10 11 12 14 17 18 17 15 12 11 12 11 8 8 9 7 6 9 10 5 1 1 3 6 7 8 7 6 7 9 9
3 3 2 3 4 4 3 3 2 4 4 2 2 3 4 6 8 10 9 6 5 4 4 8 10 9 7 7 7 7 6 5 4 5 5 5 4 3 2 2 3 5 4 2 2 2 1 1 2 4 3 5 6 7 11 15 13 11 14 14 13 14 13 11 10 10 11 11 11 11 9 7 7 6 9 11 7 4 7 8 7 6 6 6 7 8 9 10
4 4 1 2 3 3 3 2 2 3 2 1 2 5 6 7 8 9 7 4 3 4 6 9 10 7 5 6 7 7 7 8 9 9 7 7 7 6 6 7 6 4 2 2 2 2 2 1 1 2 2 4 7 7 10 12 10 9 12 10 10 11 10 8 7 9 13 13 11 12 10 8 8 8 7 10 10 9 10 7 5 5 6 6 7 9 9 10
Wind_Direction
352 350 348 346 345 344 343 342 340 341 344 342 341 342 342 342 339 338 336 335 333 333 332 331 330 328 324 323 323 319 318 316 309 299 248 260 264 256 251 250 239 195 194 176 151 147 148 156 155 152 152 158 162 151 182 222 185 170 176 188 247 231 235 212 207 199 199 222 168 172 164 148 153 157 139 104 93 124 136 100 117 74 58 118 131 139 147 151
351 349 347 345 343 343 341 341 342 343 342 339 340 341 341 339 336 336 334 332 332 331 331 330 329 325 322 323 321 319 321 315 306 279 260 272 273 265 257 245 235 200 184 166 156 151 151 165 158 154 149 159 181 155 169 191 188 197 165 192 236 218 221 202 203 232 308 239 185 179 168 164 165 160 159 138 133 144 136 114 106 85 92 115 131 140 148 155
350 348 346 344 342 342 341 340 340 339 336 336 339 340 339 337 335 334 331 330 330 329 328 327 328 324 321 321 321 320 321 317 304 269 271 290 286 271 255 235 225 205 194 178 169 164 162 161 156 154 144 171 185 167 174 175 184 205 191 225 243 236 254 249 242 276 287 190 178 183 172 171 160 153 170 147 147 166 168 156 139 136 140 136 141 145 152 159
349 347 345 344 343 343 341 339 337 336 335 336 339 339 338 335 334 331 328 329 327 326 325 324 326 321 318 321 320 317 321 319 281 251 269 327 13 336 267 224 213 200 198 185 176 171 163 155 155 158 153 182 193 189 195 186 171 182 200 223 245 238 260 248 209 248 265 180 170 178 158 167 157 150 168 140 143 196 204 190 172 160 155 149 152 153 157 163
348 346 345 343 342 341 340 340 338 337 337 337 339 338 336 334 332 329 327 326 323 323 321 321 323 319 318 320 316 314 334 327 280 260 229 277 317 331 311 213 198 190 186 175 168 161 155 149 150 161 167 182 184 202 216 206 201 220 216 227 255 271 273 257 188 198 248 140 148 163 162 165 150 154 171 158 165 211 208 203 182 159 156 157 158 157 161 165
347 345 344 342 341 340 339 339 336 336 337 338 338 336 335 332 330 327 324 322 319 318 318 318 320 317 315 318 320 308 239 262 295 284 249 302 308 313 307 197 183 179 174 162 152 145 147 149 152 167 182 189 196 202 205 200 208 251 241 228 242 250 259 269 267 185 194 111 152 174 175 149 152 183 179 181 197 240 191 184 172 160 157 156 156 159 164 168
346 344 342 341 340 339 338 336 334 335 337 338 337 335 333 330 328 325 321 318 315 314 314 314 316 313 311 322 35 223 120 253 271 270 276 299 300 304 284 176 172 170 166 153 143 145 147 157 167 173 176 190 212 210 210 204 205 232 250 246 247 247 251 267 280 247 180 192 194 169 155 156 180 190 168 198 220 359 120 149 151 155 153 152 156 163 168 168
345 344 341 341 340 339 338 337 336 336 336 337 337 334 332 329 326 322 319 315 313 312 310 309 308 306 303 318 162 284 210 250 265 277 288 290 295 295 161 161 167 167 162 154 152 151 149 162 176 170 180 207 210 193 194 212 220 231 245 255 262 257 257 264 273 271 225 210 201 154 164 184 190 170 169 206 215 112 124 134 141 148 152 158 161 164 168 168
345 343 342 341 340 340 339 339 339 337 338 338 336 334 331 328 323 320 318 314 310 306 304 302 297 288 275 236 89 283 251 254 268 289 287 257 231 153 151 157 169 167 159 161 159 153 151 166 181 169 178 212 225 216 180 184 227 231 238 251 256 260 264 268 270 269 251 218 174 166 190 201 185 141 190 207 174 129 131 134 145 152 159 165 166 166 168 171
345 343 342 341 341 342 341 341 341 340 340 338 336 335 330 326 322 319 315 310 304 297 295 290 278 242 209 192 146 252 258 244 156 60 79 162 146 150 154 160 170 167 159 163 160 158 159 166 180 172 154 209 224 239 215 200 237 245 250 257 251 258 266 263 262 262 262 226 179 185 204 201 173 165 216 197 145 139 133 143 154 157 165 168 171 171 171 174
344 343 342 342 342 342 341 341 342 342 340 338 337 333 329 327 323 317 311 305 296 288 283 268 235 189 181 160 165 234 239 171 137 82 73 113 139 153 165 170 173 169 160 159 167 174 177 173 166 153 198 223 207 226 251 228 246 278 278 284 267 264 268 254 253 254 251 228 195 186 199 177 165 212 212 160 146 148 141 152 161 164 171 169 173 175 174 177
343 342 342 342 342 341 342 342 342 342 341 339 336 333 331 328 321 314 308 301 292 281 263 231 196 175 162 129 223 233 226 192 183 131 108 118 125 164 185 182 180 177 164 159 183 184 184 175 160 161 198 165 144 213 260 219 221 281 275 293 288 303 289 262 251 227 184 220 188 151 112 168 199 219 183 141 150 149 147 157 164 170 173 170 175 176 178 179
342 342 342 341 341 341 341 342 343 342 341 339 336 334 333 327 319 314 311 303 290 267 227 203 182 170 159 196 237 239 240 237 235 238 231 245 279 264 227 200 193 192 180 173 188 193 189 172 166 183 194 147 165 220 274 209 156 300 272 247 286 330 304 274 258 199 183 202 160 138 166 223 213 211 148 146 156 147 152 163 168 173 174 174 176 177 182 182
342 343 342 341 342 341 342 343 343 342 341 339 336 336 334 327 322 322 319 308 285 215 179 169 164 159 170 254 255 259 257 258 260 254 251 257 263 237 219 207 199 201 199 191 189 197 194 176 169 186 238 189 222 311 326 335 56 317 303 260 277 298 276 287 55 121 193 206 162 156 226 235 216 199 158 159 158 155 162 169 173 175 176 179 178 179 183 186
343 344 342 343 343 343 345 344 344 343 341 338 337 338 334 330 337 345 350 353 105 149 143 141 153 152 207 274 273 273 254 254 254 247 248 245 209 192 206 199 198 200 204 203 169 164 182 172 148 163 278 257 243 305 318 331 347 43 303 291 308 222 262 298 276 174 217 228 168 169 230 256 219 183 166 165 162 164 167 172 177 177 178 180 181 182 183 188
343 345 344 345 345 345 346 345 345 343 340 339 339 339 338 347 13 34 52 64 98 131 131 135 160 166 258 280 283 268 224 226 245 246 246 232 209 205 191 177 186 193 197 199 153 116 151 153 132 182 219 254 182 194 271 304 301 26 173 249 269 229 271 308 298 215 219 213 175 191 217 290 225 175 166 167 169 170 169 175 179 179 181 181 182 183 183 185
343 345 345 346 346 347 346 345 345 343 340 341 341 342 353 20 57 72 72 80 96 113 110 141 167 171 264 271 281 260 234 224 239 250 246 232 222 206 169 152 162 174 165 140 143 127 130 146 173 179 185 207 170 150 187 238 244 284 178 227 254 231 244 285 301 317 182 161 194 216 223 270 287 171 167 171 173 172 174 180 181 181 183 183 184 185 185 186
343 344 345 346 346 347 346 345 345 343 341 344 344 349 31 49 91 75 76 89 88 100 72 108 161 172 263 257 278 272 270 258 269 274 256 234 216 197 172 150 133 134 111 79 142 147 147 179 166 176 204 199 179 166 200 220 191 189 199 222 262 239 235 255 267 301 359 198 211 219 232 259 307 163 173 176 176 177 181 182 181 183 184 184 185 187 189 191
344 344 345 345 346 347 345 345 345 343 343 348 350 6 32 20 158 34 60 70 59 164 274 174 177 210 263 241 259 281 301 308 304 281 234 195 191 191 181 145 122 122 121 131 181 168 167 175 175 205 216 194 194 197 204 183 140 170 179 188 225 236 247 246 252 271 299 285 243 221 231 240 213 176 183 180 179 183 183 179 180 185 187 187 189 191 192 197
345 345 345 345 347 346 345 346 344 344 350 353 357 20 23 7 327 316 329 312 259 236 262 240 213 251 281 281 287 308 308 291 274 267 200 174 161 164 177 118 103 123 146 150 177 177 157 185 216 211 201 186 195 203 199 180 175 200 192 203 224 239 259 249 257 276 272 261 260 231 231 241 216 192 191 180 179 187 185 180 184 189 190 191 193 194 196 202
347 346 347 347 346 346 346 345 343 348 355 359 13 37 37 24 355 318 323 298 257 240 251 244 227 239 256 265 272 31 358 310 271 273 227 174 146 144 186 163 139 180 182 152 146 128 156 203 221 203 185 181 186 187 184 190 204 222 226 246 252 241 258 256 234 267 256 208 277 269 245 248 222 199 196 179 182 194 191 184 189 192 192 195 196 198 200 201
349 348 348 347 346 347 345 344 345 351 355 7 40 56 85 56 339 292 306 296 271 240 238 245 238 241 247 250 253 261 359 291 280 272 227 176 160 168 182 170 174 188 174 150 140 148 198 223 212 184 178 173 180 179 174 189 197 210 218 231 253 243 262 279 247 258 240 211 274 278 248 252 228 186 186 190 196 203 198 191 192 191 190 194 197 200 199 192
349 348 348 347 347 347 345 345 347 350 354 359 6 51 69 6 346 323 289 278 282 247 228 239 232 237 241 245 241 216 217 228 243 263 198 167 185 187 165 176 186 176 161 178 188 183 208 238 193 170 171 167 181 183 169 184 195 200 197 202 244 235 209 272 281 290 241 215 257 261 248 274 272 173 189 200 205 213 215 211 210 197 194 198 199 200 196 189
348 348 348 347 347 347 346 345 347 348 348 344 305 104 11 345 351 352 299 252 285 249 221 227 218 228 233 227 194 184 208 206 196 245 190 166 168 154 169 182 175 175 189 195 200 199 222 256 176 161 170 175 190 192 167 182 216 217 201 206 239 234 199 237 279 327 318 291 276 114 335 309 216 184 204 203 201 210 213 213 220 214 207 208 206 206 202 196
347 347 347 347 348 347 346 347 350 344 340 342 132 358 339 337 347 352 328 269 288 268 233 223 213 226 214 181 168 173 191 216 207 220 180 168 168 145 169 178 162 190 200 191 197 215 232 240 147 156 171 177 191 205 184 179 211 244 220 214 229 231 211 227 327 1 353 318 281 160 278 294 252 208 217 198 195 208 206 205 212 211 206 209 209 209 208 204
345 346 346 346 347 347 351 353 336 339 337 344 348 331 330 332 339 341 299 343 291 263 199 187 190 194 175 150 163 147 121 243 218 198 181 177 175 154 158 167 171 198 191 176 191 227 215 180 147 165 176 175 191 213 198 170 190 246 215 194 212 218 209 210 186 13 256 256 272 165 182 271 306 255 228 203 200 209 207 209 212 208 205 208 209 207 206 204
343 345 344 345 346 348 355 327 328 340 348 320 326 328 326 329 337 335 193 352 288 233 159 138 357 175 171 165 168 145 150 258 175 185 195 179 172 158 167 173 177 191 164 136 211 220 166 165 169 175 174 182 201 214 187 160 185 232 161 146 171 190 204 199 173 194 221 245 279 236 177 252 288 256 225 194 201 221 220 219 216 208 209 210 209 208 206 206
342 344 344 343 345 348 344 318 325 334 327 322 324 325 324 328 335 316 113 346 266 223 128 234 153 151 129 162 178 181 223 171 93 202 195 173 174 160 181 190 179 180 161 161 206 198 152 173 187 185 183 196 203 194 165 165 201 211 132 135 156 169 189 171 162 207 222 248 270 237 175 230 267 266 247 178 190 223 226 225 221 212 211 209 209 209 208 209
340 342 344 342 343 347 340 324 318 321 328 330 326 323 322 324 327 123 88 264 254 358 98 173 126 130 43 129 205 260 311 26 42 204 167 176 193 169 189 193 167 172 181 189 206 190 164 188 189 185 194 209 203 176 162 179 209 190 135 158 68 131 167 142 166 202 146 212 253 240 176 210 266 272 250 167 190 219 224 225 224 219 217 211 210 210 209 210
339 341 343 343 342 343 339 328 324 332 334 333 326 322 322 318 107 112 194 234 273 357 45 57 42 325 34 113 241 280 281 300 354 112 153 180 201 175 158 124 124 150 188 214 219 215 233 187 177 183 198 205 200 180 179 189 190 136 132 224 286 329 10 40 142 118 168 249 248 230 182 191 261 251 189 182 197 208 216 223 224 223 222 217 212 210 209 209
338 340 342 343 341 340 335 325 336 342 338 334 330 325 325 355 99 161 213 246 325 345 16 21 21 2 1 207 264 266 247 279 351 135 169 173 164 176 144 104 111 130 166 231 230 227 268 140 167 207 200 186 174 186 207 193 172 138 128 158 228 313 347 341 359 77 226 249 238 208 171 176 240 240 193 214 210 202 208 214 217 217 217 216 213 209 208 208
337 340 342 344 344 341 328 325 340 345 341 337 334 333 45 133 235 209 237 325 341 344 19 335 328 356 322 272 243 218 213 247 205 164 179 183 176 182 179 173 170 156 193 220 207 203 235 228 220 244 203 177 160 183 217 184 165 164 143 134 156 267 288 230 250 172 231 250 235 186 157 187 243 236 199 219 218 209 210 213 216 216 214 213 211 209 207 204
337 340 344 352 357 351 345 343 345 344 341 339 332 357 89 184 231 212 238 302 2 352 354 276 305 312 283 291 285 241 212 218 202 177 187 189 181 190 195 182 171 161 180 194 162 148 238 272 247 219 220 179 167 174 196 189 172 173 168 150 161 192 200 212 232 237 245 253 249 184 161 224 273 252 204 209 214 212 212 217 221 218 215 215 211 207 203 201
336 341 345 353 6 360 354 349 345 341 338 340 345 36 136 210 248 223 243 281 36 6 348 313 310 304 264 281 335 5 9 276 308 166 178 163 173 198 202 202 188 165 109 150 169 174 204 253 221 203 204 170 180 193 179 155 163 181 159 136 170 189 178 192 204 209 246 262 270 182 166 210 248 240 210 202 206 209 210 218 222 224 223 219 215 206 200 203
336 341 345 347 356 357 353 346 341 340 336 345 23 177 202 216 269 31 275 304 8 4 337 316 306 318 319 303 3 24 35 342 356 348 185 164 172 195 193 205 204 170 131 172 195 177 202 238 231 206 189 165 183 199 155 132 163 191 126 132 205 188 151 197 201 178 202 299 292 211 206 224 225 258 249 211 207 206 208 219 221 230 233 224 216 202 198 204
337 342 346 344 350 351 347 341 339 337 338 36 56 226 231 235 257 63 341 345 10 344 330 321 329 36 338 320 3 2 356 1 3 357 244 157 138 157 208 208 204 193 180 189 203 158 192 238 224 146 183 191 186 177 163 163 175 169 151 186 203 139 140 217 241 190 159 276 271 206 239 283 276 278 271 220 215 210 208 217 219 228 234 226 214 201 200 204
338 341 339 328 343 348 342 339 338 333 118 90 193 233 280 284 262 11 10 2 338 325 346 351 343 20 351 338 352 351 347 346 3 10 327 198 73 0 308 302 320 250 260 285 242 182 171 246 227 150 197 224 185 160 177 179 150 134 187 195 120 86 147 188 235 261 232 251 277 211 224 260 252 267 265 187 212 226 214 213 218 227 233 228 218 207 205 205
335 333 318 311 341 344 339 337 334 310 127 96 233 258 300 283 329 357 0 349 317 298 43 150 281 11 39 355 332 348 355 356 0 2 331 261 50 13 351 326 339 342 332 330 293 214 184 251 261 189 194 208 137 148 188 200 178 168 182 173 133 138 192 165 192 226 217 237 275 279 253 234 204 233 242 188 207 225 222 215 216 225 228 227 222 214 210 207
338 332 295 332 345 343 340 339 331 163 101 102 230 264 295 295 325 338 340 338 315 282 271 215 241 6 11 342 340 349 0 359 341 342 357 5 46 38 25 343 312 330 328 324 205 225 208 216 263 240 191 161 129 163 191 212 226 216 127 159 163 168 177 170 181 185 189 227 252 287 283 251 219 207 190 201 212 214 218 217 213 219 221 220 221 218 212 207
347 335 270 338 346 344 343 350 75 73 45 193 229 297 331 324 320 330 337 338 322 287 307 290 313 347 327 331 334 322 351 358 338 319 318 11 78 59 18 360 320 322 320 315 160 268 267 201 241 284 163 149 158 198 193 192 209 204 177 192 192 163 148 159 198 178 169 200 209 250 268 259 247 203 182 199 215 213 214 214 214 219 217 216 218 218 213 208
343 294 298 336 347 344 344 12 80 9 9 314 344 335 329 325 314 321 333 347 345 268 265 284 294 293 287 314 318 313 8 353 310 276 263 15 52 41 356 352 324 315 321 344 25 10 1 213 229 243 196 190 211 210 197 194 195 189 192 200 190 178 131 145 237 246 166 193 186 189 256 261 244 197 189 197 211 216 212 209 217 225 223 220 221 221 218 212
343 325 300 330 346 343 347 63 38 355 52 350 344 320 314 315 311 322 335 350 350 294 281 277 267 276 265 276 306 13 26 303 267 300 79 57 57 38 343 341 326 321 337 5 11 359 357 245 237 235 218 216 230 223 211 210 202 191 197 195 182 176 150 170 223 223 179 222 157 133 256 267 241 192 194 201 207 217 214 204 211 226 226 221 222 226 224 218
345 306 298 330 348 342 352 76 13 3 26 342 334 319 319 326 331 341 348 344 346 337 330 313 294 355 25 345 350 6 1 13 6 27 78 85 79 48 356 347 343 350 9 12 345 330 330 274 231 274 302 267 269 287 297 267 201 198 212 192 179 190 186 192 204 174 185 214 160 184 249 267 268 206 202 215 221 233 237 213 209 224 229 217 219 227 226 224
314 288 290 338 354 354 36 60 7 355 347 340 337 328 334 350 347 345 338 332 345 346 324 315 329 5 12 339 352 16 3 33 51 41 55 67 119 65 9 352 351 5 21 11 349 332 326 314 182 324 273 243 269 289 299 313 202 209 223 201 198 197 191 201 179 133 211 207 172 200 237 244 281 276 232 247 255 256 256 238 220 230 236 226 224 228 226 224
313 275 249 326 351 10 56 54 23 355 340 340 335 326 338 352 347 341 331 332 1 357 320 302 327 0 16 357 14 33 22 51 54 23 37 11 42 77 10 343 341 358 2 2 358 335 238 293 101 148 222 219 223 223 223 279 265 239 213 201 206 200 192 201 192 179 225 207 177 210 239 250 290 302 243 239 242 251 258 259 250 242 242 242 240 234 222 213
328 328 291 317 348 30 57 56 42 5 337 340 330 318 336 336 335 344 338 346 6 354 327 311 348 11 23 14 19 23 19 32 12 346 13 357 356 43 350 327 325 339 352 7 2 350 153 350 122 171 233 238 278 265 261 324 297 278 264 206 204 207 201 200 207 207 201 177 203 225 216 218 257 250 230 234 229 240 251 252 248 242 242 248 250 249 236 218
320 315 337 340 333 1 14 31 31 360 329 335 322 292 322 326 333 356 357 1 357 342 322 11 39 34 22 9 3 352 8 6 335 347 29 7 350 345 325 300 309 350 2 12 355 353 70 345 310 32 323 304 311 294 289 297 274 269 279 244 211 206 202 206 218 205 151 164 231 232 184 189 234 233 226 233 227 235 249 245 241 241 238 236 240 250 251 241
293 314 352 356 310 341 350 334 341 331 316 319 299 285 320 329 340 355 358 344 342 340 330 11 35 28 17 7 349 315 2 1 322 32 34 3 345 345 330 303 337 6 11 9 345 23 111 249 288 7 334 309 298 285 281 282 258 247 259 254 236 218 207 211 219 198 163 201 235 224 176 192 232 236 230 228 215 216 227 229 237 262 265 249 237 243 248 243
277 279 312 1 296 301 301 300 310 311 311 320 317 311 332 335 338 343 347 334 327 339 348 336 355 2 358 359 352 312 348 4 338 357 11 349 348 355 336 313 331 11 11 3 339 1 131 250 304 345 327 312 298 281 278 290 287 269 262 254 246 236 222 218 218 203 197 224 240 213 181 200 221 225 228 229 218 212 211 200 219 259 262 256 246 244 247 243
252 284 309 317 279 271 271 279 295 303 311 320 313 306 329 328 331 334 333 320 304 316 353 344 341 344 339 339 335 292 285 314 301 300 328 340 337 329 290 285 305 356 359 348 316 322 338 294 314 352 342 310 297 300 306 308 302 286 273 259 248 244 237 229 222 210 207 228 241 222 198 217 242 244 242 247 252 295 243 211 217 235 249 259 258 249 247 248
261 292 305 297 293 293 283 272 290 301 305 314 317 335 333 324 327 328 318 291 262 280 338 337 329 330 325 321 312 294 298 313 289 279 291 290 275 271 285 278 310 343 344 306 304 323 301 281 330 24 7 294 293 324 323 317 313 288 267 258 247 243 244 238 225 212 205 210 227 234 226 231 249 252 256 265 272 264 245 237 234 252 268 268 256 249 247 246
261 291 285 259 292 301 288 283 287 283 287 326 334 324 318 311 318 323 315 291 274 307 330 325 318 317 310 300 298 302 316 314 296 286 281 263 253 256 258 254 260 265 249 268 314 287 222 216 338 24 3 288 292 310 319 322 314 275 259 256 243 234 239 252 247 223 209 200 207 226 226 216 217 212 229 257 258 244 241 238 228 250 271 267 256 255 253 253
Height
806 805 803 801 799 798 796 794 792 790 789 787 785 783 781 780 778 777 775 773 772 770 769 768 766 765 763 761 759 757 755 753 751 752 749 735 730 736 738 739 741 744 746 748 751 755 759 762 763 764 768 771 773 775 776 774 774 782 792 801 803 799 793 780 774 770 768 768 764 760 758 766 773 769 764 765 771 774 777 776 774 773 772 773 775 779 784 788
806 805 803 801 799 797 795 793 791 789 787 785 783 782 780 779 776 775 773 772 771 769 768 766 765 764 762 761 758 756 754 751 750 748 738 727 728 733 734 737 740 742 744 746 748 751 757 761 762 764 769 774 774 774 778 775 775 784 791 798 796 786 778 767 765 763 761 765 763 759 758 762 767 767 764 771 780 778 780 781 778 780 778 776 777 780 785 787
806 805 802 801 798 796 795 792 790 788 786 784 782 780 779 777 775 773 772 770 769 767 766 765 764 762 761 759 757 756 754 752 748 738 727 725 727 727 729 734 736 739 741 743 745 748 753 758 761 764 771 776 775 775 779 776 776 781 787 796 788 773 768 761 761 760 756 758 761 762 759 761 763 763 765 773 782 780 780 780 778 784 782 780 779 780 783 786
806 804 802 800 798 795 793 791 789 787 785 783 781 779 777 775 774 772 770 769 767 766 764 763 763 761 760 758 757 756 754 754 743 728 723 725 725 725 727 729 732 736 739 741 745 747 750 756 760 763 771 778 775 775 779 775 775 778 781 788 776 766 769 761 757 756 751 752 757 761 761 765 763 761 767 773 783 784 777 770 767 773 776 778 779 779 782 784
806 804 802 800 797 795 792 790 788 785 783 781 779 778 775 774 772 770 768 767 765 764 762 761 761 759 758 757 757 754 756 758 738 721 723 723 723 725 725 726 730 734 737 741 745 748 751 755 760 766 772 778 778 777 778 770 768 775 774 773 767 765 768 757 752 754 749 750 755 761 764 763 761 763 768 771 778 776 764 759 758 761 766 770 773 776 779 782
806 804 802 799 797 794 791 789 786 784 781 779 777 775 773 772 769 768 766 764 763 762 760 759 759 758 757 756 756 754 757 754 730 719 723 721 722 722 722 724 729 734 737 740 743 747 752 756 762 769 773 776 778 776 774 765 766 776 771 765 763 763 763 753 750 752 749 752 757 760 758 757 763 766 765 765 766 759 751 752 757 758 759 763 768 773 776 780
806 803 801 799 796 794 791 788 785 783 780 777 775 773 771 769 767 765 763 762 760 759 758 757 757 757 755 756 756 755 757 744 722 721 723 721 722 720 721 724 728 734 736 739 742 747 752 758 763 766 771 775 775 772 770 765 765 774 772 764 761 759 758 751 748 750 750 753 752 752 753 757 765 764 762 762 757 752 750 751 757 760 761 764 768 772 775 777
805 803 800 798 795 793 790 787 784 781 778 776 773 770 768 765 764 762 760 759 757 756 756 755 756 755 755 755 754 755 753 734 718 722 722 721 721 719 721 724 729 732 734 737 739 744 750 757 762 763 772 773 769 769 767 767 769 771 769 763 759 756 753 748 746 748 749 750 747 749 755 756 755 756 759 757 753 752 751 753 758 762 765 766 768 771 775 777
804 802 799 797 794 791 788 785 782 779 776 774 770 767 764 762 759 758 756 755 754 754 753 753 754 753 754 755 755 755 741 723 720 722 720 721 721 720 721 724 730 731 733 737 737 741 748 755 758 758 767 768 765 766 764 770 773 765 763 761 758 756 750 747 747 746 747 746 746 752 757 754 749 753 758 752 751 753 752 757 760 763 767 769 769 771 773 776
804 801 798 796 792 790 786 783 780 777 774 771 767 764 761 757 755 753 752 751 750 750 749 751 751 752 754 753 756 753 729 718 722 720 719 721 720 722 723 724 728 730 733 736 737 740 743 749 751 751 759 762 762 764 762 767 766 756 757 757 755 755 748 746 747 743 744 744 744 751 756 752 748 755 760 751 749 752 755 761 762 765 768 769 771 770 772 775
803 800 797 794 791 788 784 781 778 774 771 767 764 761 757 753 751 748 747 746 745 745 746 747 748 751 752 752 754 744 723 719 722 719 721 721 721 723 724 726 727 729 731 735 738 737 739 742 743 749 759 760 760 763 760 758 756 753 755 756 752 752 749 745 746 743 744 745 740 744 752 753 753 756 754 748 748 750 756 763 764 766 768 768 771 772 772 774
802 800 796 793 790 787 783 780 776 773 769 765 761 757 754 750 746 744 741 740 740 741 742 744 747 748 750 753 745 728 720 721 721 720 722 721 723 725 725 727 727 728 729 732 736 734 737 738 740 752 756 755 761 766 759 750 752 754 755 761 756 751 750 743 742 741 741 744 736 742 760 764 759 752 746 745 748 750 756 763 765 767 768 769 770 772 773 774
802 799 796 793 790 786 783 779 775 771 766 762 758 754 751 747 743 740 737 737 736 736 738 741 744 746 750 746 728 717 719 721 720 720 720 720 723 724 725 726 727 729 728 730 733 732 736 737 740 747 747 752 761 759 752 748 753 757 756 762 761 761 756 740 737 738 740 742 732 743 771 770 755 747 744 745 748 753 760 763 765 767 768 769 770 771 773 773
801 798 795 792 789 786 782 778 773 769 764 759 755 752 748 744 741 738 736 734 733 735 737 739 743 746 748 734 716 715 718 718 720 718 717 719 721 723 724 725 726 728 729 730 732 733 736 737 739 744 745 750 753 750 752 755 757 760 762 763 766 773 762 740 737 741 743 742 730 743 769 762 748 746 744 743 745 752 759 762 763 765 766 768 768 770 772 772
800 797 794 791 787 784 780 776 772 767 762 757 753 750 746 742 740 737 735 734 733 735 737 740 743 746 747 731 714 714 714 715 716 712 714 717 719 721 721 723 725 726 729 731 733 734 737 739 743 750 750 746 749 757 764 765 761 763 773 775 772 773 764 745 739 740 743 740 732 746 764 755 744 744 743 742 745 749 756 760 761 762 764 766 767 768 771 771
798 795 792 789 786 782 779 774 770 765 760 755 751 748 745 742 740 738 737 734 735 737 739 743 743 745 745 728 714 712 712 712 711 709 712 714 716 718 719 722 724 726 729 731 733 735 736 741 746 750 751 751 756 765 770 773 771 768 776 781 775 772 769 756 742 736 737 741 739 745 755 751 743 742 741 741 744 748 754 758 759 761 762 764 766 767 769 771
797 794 791 788 784 781 777 772 769 763 758 754 750 747 745 743 741 740 738 738 739 739 741 742 743 746 736 717 713 714 710 709 708 709 710 711 713 715 718 721 724 726 729 731 734 736 739 744 748 750 752 756 758 764 776 784 782 776 775 777 774 771 771 764 750 737 734 742 746 745 747 748 743 741 741 740 742 748 753 757 758 759 761 762 764 766 767 769
797 794 790 787 783 779 775 771 767 761 757 753 749 746 745 744 743 742 741 741 741 742 744 743 744 746 730 713 715 713 707 708 707 708 709 709 711 714 716 718 721 726 732 737 737 739 744 745 749 756 757 759 759 762 775 778 775 778 777 776 774 770 767 765 757 743 737 743 747 750 751 747 745 745 743 741 741 746 750 752 755 757 759 761 762 764 765 766
796 793 790 786 782 778 774 770 766 761 757 752 749 747 745 744 743 742 742 742 743 742 739 740 739 735 722 713 713 709 706 707 706 706 706 707 710 713 715 716 719 726 736 744 743 742 745 749 754 759 759 760 759 758 763 763 762 768 770 770 772 769 766 761 755 744 739 747 749 751 753 746 747 749 745 743 742 746 750 751 755 757 758 760 761 762 763 764
795 792 789 785 782 778 774 770 766 762 758 753 749 746 748 751 747 744 743 741 741 736 731 732 731 723 715 711 709 708 707 707 706 705 704 705 708 713 716 718 722 729 736 743 746 741 743 756 759 756 756 755 755 754 754 755 756 760 765 767 768 769 766 757 753 744 738 750 750 745 749 746 748 750 745 743 745 748 751 753 755 756 757 758 758 759 759 759
795 792 788 784 781 777 773 769 765 762 760 756 751 750 758 763 760 758 752 739 731 730 728 724 724 719 711 708 707 709 710 710 707 704 704 704 705 714 720 720 728 736 736 737 741 739 744 755 753 748 748 747 748 749 751 753 755 759 764 767 768 768 763 754 752 744 738 750 750 743 748 747 745 749 746 745 747 747 747 749 752 752 753 754 754 756 755 755
795 791 788 784 780 776 772 768 765 763 761 759 755 757 763 767 767 765 762 748 727 723 724 717 718 715 706 705 706 709 716 716 710 702 702 705 707 715 719 721 730 735 735 736 740 746 751 749 742 741 742 742 745 746 748 752 754 759 762 767 770 764 759 755 750 744 740 749 750 744 748 746 741 744 745 744 744 742 739 740 742 744 748 750 751 751 752 755
795 791 788 784 779 775 770 766 765 762 760 760 759 761 763 765 765 763 764 757 731 715 715 711 710 708 702 703 704 709 717 716 713 703 697 704 709 711 716 722 728 731 735 738 741 750 754 743 734 736 737 740 746 746 748 751 753 757 760 767 767 758 760 762 754 747 743 746 747 745 748 747 744 745 744 741 740 740 741 740 740 741 744 744 744 745 748 752
794 791 788 783 779 774 769 766 763 761 760 760 761 762 763 763 762 761 761 754 731 711 703 699 699 698 695 696 697 704 710 707 708 700 691 699 708 709 713 717 725 732 733 733 735 743 744 733 727 732 735 739 745 747 749 754 756 756 756 760 760 755 759 761 755 749 744 744 742 746 756 753 747 750 747 739 738 740 741 742 743 742 741 742 743 745 747 748
793 791 787 783 779 774 769 765 762 763 760 759 761 761 762 761 759 761 758 750 733 710 697 693 693 691 686 690 694 697 703 702 696 691 687 691 700 706 711 712 721 731 731 730 737 740 736 728 726 733 736 737 743 747 748 751 757 758 752 749 751 753 756 757 756 754 759 760 745 747 769 763 748 751 748 741 741 741 739 740 741 741 741 742 744 745 745 745
793 790 786 783 779 773 768 765 764 764 760 759 761 759 760 758 757 759 756 754 738 707 694 694 691 687 682 689 693 694 706 701 683 683 685 686 690 697 709 713 714 723 725 728 735 734 729 725 726 733 736 738 742 744 743 745 757 761 746 739 745 750 755 757 757 760 770 769 748 745 768 770 754 750 746 742 744 742 738 738 737 738 739 739 740 741 741 743
792 790 785 783 779 775 772 769 767 766 763 762 759 757 758 754 756 756 753 758 736 697 690 695 690 685 682 687 689 693 705 693 678 683 682 683 686 689 706 715 713 717 717 727 738 729 721 726 730 732 735 740 742 741 739 739 753 755 736 734 743 747 753 755 756 761 763 759 752 746 756 768 762 746 738 740 746 746 742 738 735 734 735 734 735 736 737 738
791 789 785 782 779 777 776 773 770 767 767 764 758 757 755 752 755 752 755 759 722 681 684 690 685 681 682 688 687 687 690 682 685 687 676 679 686 688 704 710 709 714 710 722 738 723 714 725 728 728 734 740 737 734 732 735 745 742 730 733 739 742 748 749 753 759 756 760 765 754 751 768 765 739 732 738 745 749 743 737 734 730 729 730 731 732 732 733
791 788 786 781 777 777 775 774 772 767 765 762 757 756 751 753 752 748 761 755 704 676 682 684 683 685 688 694 692 687 685 681 686 685 677 681 682 685 700 701 703 713 709 713 723 717 712 714 715 721 731 733 729 725 725 730 737 732 729 734 737 740 744 747 753 755 758 768 770 756 752 767 763 738 735 744 745 743 736 730 729 726 725 726 726 728 728 730
789 787 786 781 776 775 772 771 770 767 764 759 757 753 750 752 749 755 771 745 698 686 685 684 692 695 695 700 698 694 691 687 684 683 684 685 684 685 691 694 699 710 713 712 715 714 708 705 707 715 720 718 719 722 721 724 728 727 731 738 742 745 745 749 752 753 767 774 760 750 747 759 763 739 731 738 733 727 726 725 725 722 722 723 723 724 724 726
788 786 784 780 777 775 773 770 767 765 763 758 755 751 749 750 752 763 760 721 696 698 692 694 703 700 700 703 701 695 692 690 686 688 692 689 691 694 693 699 705 713 722 721 718 716 710 712 712 708 706 708 715 722 721 721 723 727 735 741 751 757 754 758 760 762 778 775 750 742 743 754 761 737 722 723 715 711 715 717 717 716 716 716 716 717 717 719
787 785 782 779 777 775 775 771 766 764 761 757 756 751 750 755 758 757 736 706 706 712 707 710 709 704 706 703 699 694 690 691 687 688 693 691 694 696 695 701 706 719 732 727 723 723 717 715 711 705 701 702 715 726 727 726 727 732 738 746 763 774 773 776 776 774 777 765 743 740 745 752 746 723 712 713 709 706 705 703 704 704 706 707 707 709 709 712
786 784 780 777 776 774 774 770 766 764 760 758 758 752 753 760 754 740 724 713 718 719 714 714 710 708 708 702 698 692 688 690 686 686 689 690 696 695 693 694 695 710 723 722 727 731 727 719 709 709 706 699 708 724 732 733 732 736 740 748 765 779 786 789 784 777 771 755 740 738 745 749 735 713 703 701 700 699 695 694 693 692 695 695 695 698 701 705
785 783 780 776 775 774 772 770 767 764 761 759 758 755 759 761 745 729 724 721 720 721 718 716 713 708 704 700 699 695 694 693 687 687 688 690 699 701 699 696 693 698 708 718 726 728 734 730 711 706 705 698 702 709 715 723 730 732 731 739 753 760 770 780 776 772 765 752 745 746 749 745 729 708 693 688 689 689 689 688 686 685 685 685 687 693 698 701
784 782 779 775 774 773 770 769 767 764 763 760 759 760 759 753 740 732 731 726 725 727 722 717 714 710 704 700 702 700 700 699 694 692 690 691 698 700 699 698 695 696 703 718 722 719 728 722 698 692 694 692 699 700 699 713 728 729 725 735 743 736 741 756 757 753 753 754 753 750 743 728 712 698 688 686 686 684 686 685 684 686 682 682 688 692 695 697
782 779 777 774 773 772 770 769 766 764 763 762 764 764 754 744 738 737 734 730 731 733 727 719 713 713 713 708 709 708 702 701 701 697 692 691 695 700 698 693 691 692 695 706 712 713 724 715 691 690 695 688 691 694 694 706 721 727 729 732 726 717 726 747 754 746 750 764 758 743 734 719 709 699 687 687 690 686 687 686 685 684 680 682 688 688 690 691
782 778 777 774 772 771 769 767 765 763 762 764 767 762 751 743 738 738 736 734 735 733 731 729 720 718 724 722 721 718 708 705 706 704 701 697 702 713 710 697 692 693 694 700 702 701 710 710 692 689 697 689 683 689 692 693 703 720 729 720 712 718 725 738 755 755 758 769 757 739 733 723 719 711 691 689 694 690 687 686 684 682 680 682 684 683 684 683
785 781 778 774 772 770 767 765 763 762 762 766 768 760 751 745 739 738 738 737 736 732 734 739 728 722 729 732 728 722 715 715 715 714 711 704 711 724 723 713 706 702 702 703 702 695 698 708 698 684 689 689 682 692 703 696 692 702 709 703 710 732 738 739 752 758 764 770 755 740 733 722 718 710 695 693 693 688 685 685 684 682 680 680 679 678 678 678
787 784 779 774 771 768 765 762 761 761 762 767 770 761 753 748 742 740 740 738 737 734 735 736 730 727 730 731 730 725 720 721 720 719 715 710 717 725 726 724 715 707 705 703 700 694 694 708 707 686 681 687 688 698 710 708 698 696 701 702 706 718 728 734 739 741 752 762 755 746 737 721 707 695 688 688 685 682 682 682 681 679 675 674 673 672 673 675
791 789 781 773 771 768 763 760 760 763 765 767 766 761 756 752 746 742 741 740 738 736 736 735 733 734 732 728 730 727 723 723 721 720 717 715 721 726 726 726 722 712 705 699 697 694 691 703 709 694 684 692 698 698 699 702 702 703 709 712 710 710 714 723 728 726 732 746 750 750 740 715 692 682 677 675 674 675 676 676 675 672 668 667 666 665 666 668
794 795 785 773 772 769 763 762 765 767 768 767 764 763 760 755 749 745 741 740 739 736 734 735 734 735 734 732 731 727 726 726 723 719 719 722 729 732 728 727 726 717 707 703 705 705 703 704 706 700 695 698 697 687 680 684 688 695 704 707 708 710 714 728 737 725 719 728 733 739 737 707 679 674 671 665 666 667 668 670 670 668 665 663 661 659 659 661
798 798 786 774 774 771 767 768 770 770 771 770 767 765 761 755 751 748 743 742 741 737 733 733 733 733 733 732 730 729 729 728 724 720 723 730 736 737 731 726 724 717 712 716 717 713 713 712 708 703 698 693 686 676 673 674 675 682 690 694 698 704 709 724 735 725 718 723 721 727 731 699 668 667 666 659 659 659 661 665 665 663 662 660 659 656 655 657
800 797 785 776 775 773 771 775 776 775 774 772 769 765 760 756 754 750 747 746 744 741 739 737 733 733 734 732 730 730 730 728 727 726 729 734 737 736 731 725 722 717 716 722 721 712 711 712 711 705 695 687 680 676 674 673 677 684 686 685 691 697 697 702 711 714 717 720 719 729 729 695 665 664 664 660 659 658 660 662 660 659 657 657 657 655 654 654
799 796 786 779 777 774 775 782 786 783 778 774 772 767 760 758 758 756 753 750 747 746 746 742 736 736 737 735 732 732 732 732 733 732 733 736 736 734 730 726 724 722 721 724 723 718 716 715 715 714 711 706 699 694 689 683 684 688 686 684 684 687 691 694 700 711 715 710 711 722 719 690 667 665 666 666 665 661 659 659 659 658 656 655 655 653 653 653
799 796 789 783 780 777 780 786 790 789 784 780 778 772 765 762 760 759 756 752 749 749 749 745 740 739 740 738 736 735 735 736 738 736 736 736 734 733 731 728 727 725 723 720 718 719 722 720 719 721 723 724 720 714 709 702 694 686 681 681 682 683 688 693 700 712 716 708 703 706 702 684 668 666 667 667 667 664 658 657 660 659 655 654 653 652 652 652
802 800 794 787 782 782 784 785 788 792 789 786 783 776 771 769 763 759 757 755 753 751 749 747 743 743 745 744 742 741 739 739 740 739 739 739 737 735 733 730 729 726 723 719 716 719 724 723 720 722 725 726 726 720 714 713 710 699 687 681 680 681 683 686 695 703 704 707 703 692 687 682 672 667 667 664 665 665 657 654 657 656 653 652 651 650 650 649
806 803 799 796 791 787 787 786 789 792 790 789 788 780 774 773 767 762 760 760 760 757 751 748 747 750 753 752 751 748 744 743 742 741 742 742 739 737 734 730 730 727 724 723 720 721 729 729 722 724 727 727 727 722 714 714 717 710 698 686 678 677 679 682 687 686 686 701 702 685 680 684 675 666 664 660 660 661 656 653 652 649 649 650 648 648 649 648
806 803 800 801 800 796 794 792 791 792 790 788 786 780 777 776 772 769 766 763 762 761 758 755 754 756 757 757 756 753 749 747 745 743 745 745 743 741 737 732 731 729 727 728 725 724 733 734 725 726 731 727 724 721 713 712 713 706 699 690 679 675 674 674 676 675 676 685 685 676 678 682 673 664 660 655 651 650 648 646 646 646 645 645 646 647 648 647
805 804 800 800 801 800 798 795 793 792 791 788 784 781 782 781 776 773 771 769 767 763 762 764 762 760 759 757 757 757 754 752 751 749 747 747 746 746 743 737 733 731 731 732 729 726 731 732 726 728 732 727 722 717 711 710 709 702 695 688 679 672 667 665 667 669 670 670 668 671 677 675 665 657 652 646 644 644 644 645 646 645 643 642 645 647 645 643
805 805 803 801 801 798 797 795 793 793 791 788 786 784 784 783 780 776 773 774 775 768 763 766 765 763 761 758 758 759 754 752 754 753 750 750 750 747 745 741 737 735 736 736 733 728 730 732 727 727 734 729 719 713 710 708 708 704 695 685 677 670 664 663 664 666 670 672 669 671 677 674 664 654 647 644 645 648 648 647 645 642 640 641 643 644 642 640
805 804 804 804 802 796 795 794 793 795 794 790 787 785 784 783 781 779 775 771 771 770 767 767 767 764 762 760 759 758 753 751 753 751 749 750 750 746 744 741 739 741 741 738 735 732 732 733 728 730 737 732 718 715 713 706 702 696 686 678 675 671 667 663 662 662 665 670 671 673 677 673 662 654 649 646 647 650 647 644 644 644 643 643 642 640 638 636
804 803 803 805 802 796 794 794 794 796 793 788 787 786 786 784 781 781 779 769 765 766 767 766 767 766 764 762 759 755 752 750 749 747 746 745 744 742 741 739 738 741 742 740 739 736 733 732 730 732 739 732 719 717 716 711 704 688 670 665 666 665 663 661 658 655 654 657 663 666 664 658 651 650 652 648 646 647 644 643 646 645 643 644 642 639 637 634